| time (UTC) | temp F | wind direction | speed MPH | gust MPH | rain 1hr in | rain 24hr in | rain mn in | humidity % | barometer mb |
| 20260831191402 | 83 | 294 | 6.0 | 10.0 | 0.00 | 0.01 | 0.00 | 67 | 1017.4 |
| 20260831190401 | 84 | 302 | 5.0 | 11.0 | 0.00 | 0.01 | 0.00 | 66 | 1017.8 |
| 20260831185401 | 85 | 302 | 6.0 | 13.0 | 0.00 | 0.01 | 0.00 | 64 | 1017.8 |
| 20260831184400 | 86 | 301 | 4.0 | 13.0 | 0.00 | 0.01 | 0.00 | 63 | 1017.9 |
| 20260831183359 | 85 | 293 | 7.0 | 12.0 | 0.00 | 0.01 | 0.00 | 63 | 1018.2 |
| 20260831182359 | 85 | 286 | 6.0 | 16.0 | 0.00 | 0.02 | 0.00 | 65 | 1018.1 |
| 20260831181358 | 85 | 306 | 6.0 | 16.0 | 0.00 | 0.02 | 0.00 | 64 | 1018.5 |
| 20260831180357 | 86 | 317 | 10.0 | 16.0 | 0.00 | 0.02 | 0.00 | 62 | 1018.5 |
| 20260831175356 | 86 | 313 | 7.0 | 16.0 | 0.00 | 0.02 | 0.00 | 62 | 1018.5 |
| 20260831174355 | 85 | 301 | 8.0 | 15.0 | 0.00 | 0.02 | 0.00 | 62 | 1018.5 |
| 20260831173354 | 85 | 311 | 7.0 | 14.0 | 0.00 | 0.02 | 0.00 | 63 | 1018.8 |
| 20260831172354 | 84 | 301 | 7.0 | 11.0 | 0.00 | 0.02 | 0.00 | 67 | 1018.8 |
| 20260831171322 | 84 | 301 | 7.0 | 11.0 | 0.00 | 0.02 | 0.00 | 67 | 1018.8 |
| 20260831170321 | 85 | 304 | 6.0 | 12.0 | 0.00 | 0.02 | 0.00 | 66 | 1018.8 |
| 20260831165321 | 84 | 321 | 5.0 | 13.0 | 0.00 | 0.02 | 0.00 | 67 | 1018.8 |
| 20260831164319 | 84 | 304 | 6.0 | 13.0 | 0.00 | 0.02 | 0.00 | 69 | 1018.8 |
| 20260831163248 | 84 | 293 | 7.0 | 13.0 | 0.00 | 0.02 | 0.00 | 69 | 1018.8 |
| 20260831162247 | 84 | 312 | 4.0 | 9.0 | 0.00 | 0.02 | 0.00 | 71 | 1018.8 |
| 20260831161246 | 83 | 293 | 5.0 | 15.0 | 0.00 | 0.02 | 0.00 | 71 | 1018.8 |
| 20260831160245 | 83 | 282 | 6.0 | 15.0 | 0.00 | 0.02 | 0.00 | 70 | 1018.8 |
| 20260831155244 | 84 | 279 | 7.0 | 11.0 | 0.00 | 0.02 | 0.00 | 70 | 1018.8 |
| 20260831154243 | 83 | 290 | 7.0 | 11.0 | 0.00 | 0.02 | 0.00 | 73 | 1018.8 |
| 20260831153243 | 82 | 278 | 7.0 | 10.0 | 0.00 | 0.02 | 0.00 | 72 | 1018.8 |
| 20260831152242 | 83 | 278 | 3.0 | 9.0 | 0.00 | 0.02 | 0.00 | 74 | 1018.8 |
| 20260831151241 | 81 | 276 | 4.0 | 8.0 | 0.00 | 0.02 | 0.00 | 74 | 1018.7 |
| 20260831150240 | 80 | 277 | 4.0 | 8.0 | 0.00 | 0.02 | 0.00 | 75 | 1018.7 |
| 20260831145240 | 80 | 267 | 4.0 | 9.0 | 0.00 | 0.02 | 0.00 | 75 | 1018.6 |
| 20260831144239 | 80 | 269 | 4.0 | 9.0 | 0.00 | 0.02 | 0.00 | 76 | 1018.6 |
| 20260831143238 | 79 | 262 | 3.0 | 6.0 | 0.00 | 0.02 | 0.00 | 78 | 1018.6 |
| 20260831142237 | 78 | 239 | 2.0 | 6.0 | 0.00 | 0.02 | 0.00 | 80 | 1018.6 |
| 20260831141236 | 78 | 260 | 2.0 | 6.0 | 0.00 | 0.02 | 0.00 | 81 | 1018.6 |
| 20260831140235 | 77 | 256 | 2.0 | 7.0 | 0.00 | 0.02 | 0.00 | 81 | 1018.6 |
| 20260831135204 | 77 | 268 | 3.0 | 6.0 | 0.00 | 0.02 | 0.00 | 83 | 1018.6 |
| 20260831134203 | 76 | 251 | 2.0 | 6.0 | 0.00 | 0.02 | 0.00 | 83 | 1018.5 |
| 20260831133202 | 76 | 266 | 2.0 | 6.0 | 0.00 | 0.02 | 0.00 | 84 | 1018.5 |
| 20260831132201 | 75 | 233 | 2.0 | 4.0 | 0.00 | 0.02 | 0.00 | 85 | 1018.5 |
| 20260831131201 | 74 | 242 | 1.0 | 4.0 | 0.00 | 0.02 | 0.00 | 87 | 1018.5 |
| 20260831130200 | 74 | 242 | 2.0 | 5.0 | 0.00 | 0.02 | 0.00 | 87 | 1018.5 |
| 20260831125128 | 73 | 239 | 2.0 | 5.0 | 0.00 | 0.02 | 0.00 | 86 | 1018.5 |
| 20260831124127 | 73 | 245 | 2.0 | 6.0 | 0.00 | 0.02 | 0.00 | 86 | 1018.5 |
| 20260831123127 | 73 | 225 | 3.0 | 6.0 | 0.00 | 0.02 | 0.00 | 85 | 1018.5 |
| 20260831122126 | 73 | 234 | 1.0 | 5.0 | 0.00 | 0.02 | 0.00 | 85 | 1018.5 |
| 20260831121125 | 73 | 230 | 2.0 | 5.0 | 0.00 | 0.02 | 0.00 | 85 | 1018.5 |
| 20260831120124 | 72 | 252 | 1.0 | 5.0 | 0.00 | 0.02 | 0.00 | 86 | 1018.5 |
| 20260831115123 | 72 | 257 | 3.0 | 5.0 | 0.00 | 0.02 | 0.00 | 87 | 1018.5 |
| 20260831114122 | 72 | 277 | 3.0 | 4.0 | 0.00 | 0.02 | 0.00 | 87 | 1018.1 |
| 20260831113050 | 72 | 230 | 1.0 | 6.0 | 0.00 | 0.02 | 0.00 | 87 | 1018.1 |
| 20260831112050 | 72 | 244 | 1.0 | 7.0 | 0.00 | 0.02 | 0.00 | 87 | 1018.2 |
| 20260831111018 | 71 | 244 | 3.0 | 8.0 | 0.00 | 0.02 | 0.00 | 88 | 1018.2 |
| 20260831110017 | 71 | 246 | 3.0 | 8.0 | 0.00 | 0.02 | 0.00 | 89 | 1018.2 |
| 20260831104945 | 70 | 235 | 3.0 | 7.0 | 0.00 | 0.02 | 0.00 | 90 | 1018.1 |
| 20260831103945 | 71 | 261 | 2.0 | 3.0 | 0.00 | 0.02 | 0.00 | 89 | 1018.2 |
| 20260831102943 | 71 | 277 | 2.0 | 3.0 | 0.00 | 0.02 | 0.00 | 88 | 1017.8 |
| 20260831101942 | 71 | 251 | 1.0 | 3.0 | 0.00 | 0.02 | 0.00 | 88 | 1017.8 |
| 20260831100941 | 71 | 225 | 1.0 | 3.0 | 0.00 | 0.02 | 0.00 | 88 | 1017.5 |
| 20260831095941 | 71 | 209 | 2.0 | 4.0 | 0.00 | 0.02 | 0.00 | 88 | 1017.5 |
| 20260831094940 | 71 | 203 | 2.0 | 4.0 | 0.00 | 0.02 | 0.00 | 88 | 1017.5 |
| 20260831093939 | 71 | 226 | 1.0 | 3.0 | 0.00 | 0.02 | 0.00 | 88 | 1017.5 |
| 20260831092938 | 71 | 240 | 1.0 | 2.0 | 0.00 | 0.02 | 0.00 | 88 | 1017.5 |
| 20260831091938 | 71 | 214 | 0.0 | 3.0 | 0.00 | 0.02 | 0.00 | 87 | 1017.9 |
| 20260831090937 | 71 | 218 | 1.0 | 4.0 | 0.00 | 0.02 | 0.00 | 87 | 1017.5 |
| 20260831085936 | 71 | 208 | 1.0 | 3.0 | 0.00 | 0.02 | 0.00 | 87 | 1017.8 |
| 20260831084935 | 71 | 238 | 1.0 | 3.0 | 0.00 | 0.02 | 0.00 | 87 | 1017.8 |
| 20260831083934 | 71 | 225 | 1.0 | 3.0 | 0.00 | 0.02 | 0.00 | 87 | 1017.8 |
| 20260831082934 | 71 | 253 | 2.0 | 4.0 | 0.00 | 0.02 | 0.00 | 87 | 1017.5 |
| 20260831081933 | 71 | 238 | 1.0 | 4.0 | 0.00 | 0.02 | 0.00 | 87 | 1017.5 |
| 20260831080932 | 71 | 232 | 2.0 | 4.0 | 0.00 | 0.02 | 0.00 | 87 | 1017.5 |
| 20260831075931 | 71 | 220 | 2.0 | 4.0 | 0.00 | 0.02 | 0.00 | 87 | 1017.8 |
| 20260831074930 | 71 | 226 | 2.0 | 5.0 | 0.00 | 0.02 | 0.00 | 87 | 1017.8 |
| 20260831073930 | 70 | 229 | 2.0 | 5.0 | 0.00 | 0.02 | 0.00 | 87 | 1017.8 |
| 20260831072929 | 71 | 231 | 1.0 | 3.0 | 0.00 | 0.02 | 0.00 | 87 | 1017.8 |
| 20260831071928 | 71 | 221 | 1.0 | 2.0 | 0.00 | 0.02 | 0.00 | 87 | 1017.8 |
| 20260831070926 | 71 | 218 | 1.0 | 5.0 | 0.00 | 0.02 | 0.00 | 86 | 1017.8 |
| 20260831065926 | 70 | 220 | 2.0 | 5.0 | 0.00 | 0.02 | 0.00 | 86 | 1017.8 |
| 20260831064925 | 70 | 216 | 2.0 | 5.0 | 0.00 | 0.02 | 0.00 | 86 | 1017.8 |
| 20260831063924 | 70 | 229 | 2.0 | 5.0 | 0.00 | 0.02 | 0.00 | 86 | 1018.1 |
| 20260831062922 | 70 | 213 | 2.0 | 4.0 | 0.00 | 0.02 | 0.00 | 86 | 1018.2 |
| 20260831061921 | 70 | 233 | 2.0 | 4.0 | 0.00 | 0.02 | 0.00 | 86 | 1018.2 |
| 20260831060920 | 70 | 228 | 1.0 | 5.0 | 0.00 | 0.02 | 0.00 | 85 | 1018.2 |
| 20260831055920 | 70 | 216 | 1.0 | 4.0 | 0.00 | 0.02 | 0.00 | 85 | 1018.2 |
| 20260831054919 | 70 | 227 | 2.0 | 4.0 | 0.00 | 0.02 | 0.00 | 85 | 1018.2 |
| 20260831053918 | 71 | 246 | 2.0 | 5.0 | 0.00 | 0.02 | 0.00 | 85 | 1018.5 |
| 20260831052918 | 71 | 231 | 2.0 | 7.0 | 0.00 | 0.02 | 0.00 | 85 | 1018.5 |
| 20260831051917 | 71 | 229 | 4.0 | 9.0 | 0.00 | 0.02 | 0.00 | 85 | 1018.5 |
| 20260831050917 | 70 | 216 | 4.0 | 9.0 | 0.00 | 0.02 | 0.00 | 86 | 1018.5 |
| 20260831045916 | 70 | 209 | 4.0 | 7.0 | 0.00 | 0.02 | 0.00 | 87 | 1018.2 |
| 20260831044915 | 70 | 209 | 3.0 | 6.0 | 0.00 | 0.02 | 0.00 | 88 | 1018.2 |
| 20260831043913 | 70 | 206 | 2.0 | 6.0 | 0.00 | 0.02 | 0.00 | 88 | 1018.2 |
| 20260831042912 | 70 | 197 | 2.0 | 6.0 | 0.00 | 0.02 | 0.00 | 88 | 1018.5 |
| 20260831041911 | 70 | 205 | 3.0 | 6.0 | 0.00 | 0.02 | 0.00 | 88 | 1018.5 |
| 20260831040911 | 70 | 210 | 2.0 | 4.0 | 0.00 | 0.02 | 0.00 | 88 | 1018.5 |
| 20260831035839 | 70 | 205 | 2.0 | 5.0 | 0.00 | 0.02 | 0.02 | 88 | 1018.5 |
| 20260831034838 | 70 | 207 | 2.0 | 5.0 | 0.00 | 0.02 | 0.02 | 88 | 1018.5 |
| 20260831033837 | 70 | 203 | 2.0 | 6.0 | 0.00 | 0.02 | 0.02 | 89 | 1018.5 |
| 20260831032837 | 70 | 202 | 2.0 | 7.0 | 0.00 | 0.02 | 0.02 | 88 | 1018.4 |
| 20260831031834 | 70 | 199 | 3.0 | 8.0 | 0.00 | 0.02 | 0.02 | 89 | 1018.8 |
| 20260831030833 | 70 | 209 | 3.0 | 8.0 | 0.00 | 0.02 | 0.02 | 90 | 1018.7 |
| 20260831025833 | 69 | 210 | 4.0 | 7.0 | 0.00 | 0.02 | 0.02 | 92 | 1018.7 |
| 20260831024832 | 69 | 190 | 1.0 | 3.0 | 0.00 | 0.02 | 0.02 | 93 | 1019.0 |
| 20260831023831 | 68 | 190 | 1.0 | 3.0 | 0.00 | 0.02 | 0.02 | 93 | 1019.0 |
| 20260831022830 | 68 | 179 | 1.0 | 2.0 | 0.00 | 0.02 | 0.02 | 93 | 1019.0 |
| 20260831021829 | 69 | 182 | 1.0 | 2.0 | 0.00 | 0.02 | 0.02 | 93 | 1019.1 |
| 20260831020828 | 69 | 186 | 0.0 | 2.0 | 0.00 | 0.02 | 0.02 | 93 | 1019.1 |
| 20260831015827 | 69 | 186 | 1.0 | 2.0 | 0.00 | 0.02 | 0.02 | 93 | 1019.4 |
| 20260831014827 | 69 | 176 | 1.0 | 2.0 | 0.00 | 0.02 | 0.02 | 92 | 1019.4 |
| 20260831013723 | 70 | 175 | 1.0 | 2.0 | 0.00 | 0.02 | 0.02 | 91 | 1019.4 |
| 20260831012723 | 70 | 65 | 1.0 | 2.0 | 0.00 | 0.02 | 0.02 | 91 | 1019.8 |
| 20260831011722 | 70 | 15 | 0.0 | 1.0 | 0.00 | 0.02 | 0.02 | 92 | 1019.7 |
| 20260831010721 | 70 | 15 | 1.0 | 2.0 | 0.00 | 0.02 | 0.02 | 92 | 1020.1 |
| 20260831005720 | 70 | 15 | 1.0 | 2.0 | 0.00 | 0.02 | 0.02 | 91 | 1019.7 |
| 20260831004719 | 71 | 15 | 1.0 | 2.0 | 0.00 | 0.02 | 0.02 | 91 | 1019.7 |
| 20260831003718 | 71 | 119 | 0.0 | 0.0 | 0.00 | 0.02 | 0.02 | 90 | 1019.1 |
| 20260831002716 | 71 | 119 | 0.0 | 0.0 | 0.00 | 0.02 | 0.02 | 90 | 1019.0 |
| 20260831001715 | 71 | 119 | 0.0 | 0.0 | 0.00 | 0.02 | 0.02 | 90 | 1019.0 |
| 20260831000714 | 71 | 119 | 0.0 | 0.0 | 0.00 | 0.02 | 0.02 | 88 | 1019.0 |
| 20260830235713 | 72 | 119 | 0.0 | 0.0 | 0.00 | 0.02 | 0.02 | 88 | 1019.0 |
| 20260830234713 | 72 | 119 | 0.0 | 1.0 | 0.00 | 0.02 | 0.02 | 88 | 1019.0 |
| 20260830233710 | 72 | 119 | 0.0 | 2.0 | 0.00 | 0.02 | 0.02 | 87 | 1019.0 |
| 20260830232710 | 73 | 119 | 1.0 | 2.0 | 0.00 | 0.02 | 0.02 | 85 | 1019.0 |
| 20260830231709 | 73 | 119 | 0.0 | 2.0 | 0.00 | 0.02 | 0.02 | 85 | 1018.7 |
| 20260830230708 | 74 | 126 | 1.0 | 2.0 | 0.00 | 0.02 | 0.02 | 84 | 1018.4 |
| 20260830225605 | 74 | 206 | 1.0 | 2.0 | 0.00 | 0.02 | 0.02 | 81 | 1018.4 |
| 20260830224602 | 74 | 219 | 1.0 | 2.0 | 0.00 | 0.02 | 0.02 | 81 | 1018.1 |
| 20260830223602 | 74 | 206 | 0.0 | 3.0 | 0.00 | 0.02 | 0.02 | 80 | 1018.1 |
| 20260830222527 | 75 | 208 | 1.0 | 6.0 | 0.00 | 0.02 | 0.02 | 79 | 1017.8 |
| 20260830221455 | 75 | 238 | 1.0 | 6.0 | 0.00 | 0.02 | 0.02 | 79 | 1017.8 |
| 20260830220454 | 75 | 216 | 4.0 | 6.0 | 0.00 | 0.02 | 0.02 | 77 | 1017.4 |
| 20260830215454 | 76 | 209 | 3.0 | 8.0 | 0.00 | 0.02 | 0.02 | 77 | 1017.5 |
| 20260830214451 | 76 | 219 | 2.0 | 8.0 | 0.00 | 0.02 | 0.02 | 78 | 1017.8 |
| 20260830213347 | 76 | 222 | 2.0 | 7.0 | 0.00 | 0.02 | 0.02 | 79 | 1017.8 |
| 20260830212315 | 76 | 201 | 2.0 | 5.0 | 0.00 | 0.02 | 0.02 | 80 | 1017.5 |
| 20260830211314 | 75 | 212 | 2.0 | 6.0 | 0.00 | 0.02 | 0.02 | 82 | 1017.4 |
| 20260830210313 | 74 | 211 | 2.0 | 6.0 | 0.00 | 0.02 | 0.02 | 83 | 1017.7 |
| 20260830205312 | 74 | 199 | 3.0 | 7.0 | 0.00 | 0.02 | 0.02 | 84 | 1017.7 |
| 20260830204311 | 74 | 211 | 1.0 | 7.0 | 0.00 | 0.02 | 0.02 | 83 | 1018.1 |
| 20260830203239 | 74 | 220 | 3.0 | 4.0 | 0.01 | 0.02 | 0.02 | 85 | 1018.1 |
| 20260830202238 | 74 | 225 | 2.0 | 4.0 | 0.01 | 0.02 | 0.02 | 86 | 1018.1 |
| 20260830201237 | 74 | 202 | 1.0 | 3.0 | 0.01 | 0.02 | 0.02 | 86 | 1018.0 |
| 20260830200237 | 73 | 188 | 1.0 | 4.0 | 0.01 | 0.02 | 0.02 | 87 | 1018.4 |
| 20260830195236 | 73 | 201 | 2.0 | 5.0 | 0.01 | 0.02 | 0.02 | 85 | 1018.4 |
| 20260830194133 | 73 | 219 | 1.0 | 6.0 | 0.01 | 0.02 | 0.02 | 85 | 1018.4 |
| 20260830193132 | 73 | 223 | 2.0 | 6.0 | 0.00 | 0.01 | 0.01 | 84 | 1018.7 |
| 20260830192131 | 73 | 221 | 3.0 | 7.0 | 0.01 | 0.01 | 0.01 | 84 | 1018.7 |